Location: Charlottesville
(38.0290°N, 78.4770°W)
Time: 16:46:02
(UTC-05:00)

Tiangong 2 - Pass Details

Date: 14 October 2017
Orbit: 386 x 390 km, 42.8° (Epoch: 15 December)

Event Time Altitude Azimuth Distance (km) Brightness Sun altitude
Exits shadow 06:29:29 14° 303° (WNW) 1,187 3.0 -11.1°
Maximum altitude 06:31:48 34° 4° (N) 672 2.3 -10.6°
Drops below altitude 10° 06:34:46 10° 72° (ENE) 1,425 5.2 -10.0°
Sets 06:36:58 0° 82° (E) 2,281 7.0 -9.6°
